SCP
0 0 0 0 0 0 0 0 0 0 0 0 0 0 0 0 0 0 0 0 0 0 0 0 0 0 0 0 0 0 0 0 0 0 0 0 0 0 0 0 0 0 0
0 0 0 0 0 0 0 0 0 0 0 0 0 0 0 0 0 0 0 0 0 0 0 0 0 0 0 0 0 0 0 0 0 0 0 0 0 0 0 0 -0 0 0
0 0 0 0 0 0 0 0 0 0 0 0 0 0 0 0 0 0 0 0 0 0 0 0 0 0 0 0 0 0 0 0 0 0 0 0 0 0 0 0 0 0 0
0 0 0 0 0 0 0 0 0 0 0 0 0 0 0 0 0 0 0 0 0 0 0 0 0 0 0 0 0 0 0 0 0 0 0 0 0 0 0 0 0 0 0
0 0 0 0 0 0 0 0 0 0 0 0 0 0 0 0 0 0 0 0 0 0 0 0 0 0 0 0 0 0 0 0 -0 0 0 0 0 0 0 0 0 0 0
0 0 0 0 0 0 0 0 0 0 0 0 0 0 0 0 0 0 0 0 0 0 0 0 0 0 0 0 0 0 -0 -0 0 0 -0 0 0 0 0 0 0 0 0
0 0 0 0 0 0 0 0 0 0 0 0 0 0 0 0 0 0 0 0 0 0 0 0 0 0 0 0 0 -0 -0 -0 -0 -0 -0 0 0 0 0 0 0 0 0
0 0 0 0 0 0 0 0 0 0 0 0 0 0 0 0 0 0 0 0 0 0 0 0 0 0 0 0 -0 -0 0 0 0 0 0 0 0 0 0 0 0 0 0
0 0 0 0 0 0 0 0 0 0 0 0 0 0 0 0 0 0 0 0 0 0 0 0 0 0 0 0 0 0 0 0 0 -0 0 0 -0 -0 0 0 0 0 0
0 0 0 0 0 0 0 0 0 0 0 0 0 0 0 0 0 0 0 0 0 0 0 0 0 0 0 0 0 0 -0 0 0 0 0 -0 -0 0 0 0 0 0 0
0 0 0 0 0 0 0 0 0 0 0 0 0 0 0 0 0 0 0 0 0 0 0 0 0 0 0 -0 -0 -0 -0 0 -0 0 0 0 0 -0 0 0 0 0 0
0 0 0 0 0 0 0 0 0 0 0 0 0 0 0 0 0 0 0 0 0 0 0 0 0 -0 0 0 -0 -0 0 -0 0 0 0 0 0 0 0 0 0 0 0
0 0 0 0 0 0 0 0 0 0 0 0 0 0 0 0 0 0 0 0 0 0 0 0 0 0 0 0 0 -0 0 0 0 0 0 0 0 0 0 0 0 0 0
0 0 0 0 0 0 0 0 0 0 0 0 0 0 0 0 0 0 0 0 0 0 0 0 0 0 0 0 0 0 0 0 0 0 0 0 0 0 0 0 0 0 -0
0 0 0 0 0 0 0 0 0 0 0 0 0 0 0 0 0 0 0 0 0 0 0 0 0 0 0 0 0 0 0 0 0 0 0 0 0 0 0 0 0 0 0
0 0 0 0 0 0 0 0 0 0 0 0 0 0 0 0 0 0 0 0 0 0 0 0 0 0 0 0 0 0 0 0 0 0 0 0 0 0 0 0 0 0 -0
0 0 0 0 0 0 0 0 0 0 0 0 0 0 0 0 0 0 0 0 0 0 0 0 0 0 0 0 0 0 0 0 0 0 0 0 0 0 0 0 0 0 -0
0 0 0 0 0 0 0 0 0 0 0 0 0 0 0 0 0 0 0 0 0 0 0 0 0 0 0 0 0 0 0 0 0 0 0 0 0 0 0 0 0 0 0
0 0 0 0 0 0 0 0 0 0 0 0 0 0 0 0 0 0 0 0 0 0 0 0 0 0 0 0 0 0 0 0 0 0 0 0 0 0 0 0 0 0 0
0 0 0 0 0 0 0 0 0 0 0 0 0 0 0 0 0 0 0 0 0 0 0 0 0 0 0 0 0 0 0 0 0 0 0 0 0 0 0 0 0 0 0
0 0 0 0 0 0 0 0 0 0 0 0 0 0 0 0 0 0 0 0 0 0 0 0 0 0 0 0 0 0 0 0 -0 -0 0 0 0 0 0 -0 -0 -0 -0
0 0 0 0 0 0 0 0 0 0 0 0 0 0 0 0 0 0 0 0 0 0 0 0 0 0 0 0 0 0 0 0 0 0 0 0 0 0 0 -0 0 0 0
0 0 0 0 0 0 0 0 0 0 0 0 0 0 0 0 0 0 0 0 0 0 0 0 0 0 0 0 0 0 0 0 0 0 0 0 0 0 0 0 0 0 0
0 0 0 0 0 0 0 0 0 0 0 0 0 0 0 0 0 0 0 0 0 0 0 0 0 0 0 0 0 0 0 0 0 0 0 0 0 0 0 0 0 0 0
0 0 0 0 0 0 0 0 0 0 0 0 0 0 0 0 0 0 0 0 0 0 0 0 0 0 0 0 0 0 0 0 0 0 0 0 0 0 0 0 0 0 0
0 0 0 0 0 0 0 0 0 0 0 0 0 0 0 0 0 0 0 0 0 0 0 0 0 0 0 0 0 0 0 0 0 0 0 0 0 0 0 0 0 0 0
Wind_Speed_500mb
57 53 49 47 43 38 35 32 30 29 29 28 29 35 47 58 66 73 80 90 88 86 85 91 92 88 89 84 83 85 80 76 80 73 74 74 79 40 61 54 40 48 49
53 52 50 47 41 35 32 30 28 27 27 24 29 38 49 59 67 74 82 88 90 89 90 89 83 76 75 77 75 69 75 69 73 64 74 69 72 75 51 64 69 71 59
51 52 49 43 37 33 30 27 26 26 23 24 31 41 51 60 68 74 81 90 89 85 81 72 78 82 85 75 59 61 56 60 61 64 68 68 71 68 40 44 40 46 64
51 49 45 38 34 32 28 26 24 24 19 22 30 40 49 59 66 74 83 91 84 76 67 67 74 79 72 67 46 45 45 45 47 52 57 60 50 46 27 30 39 41 43
49 45 40 36 33 30 26 24 23 21 19 21 29 37 46 55 65 76 82 88 78 70 66 62 65 62 43 26 32 34 32 32 37 48 51 41 36 35 17 13 19 26 25
43 40 37 35 33 29 26 23 23 20 19 22 29 37 44 53 63 69 78 84 69 63 63 62 59 54 44 30 16 17 22 25 28 38 27 34 27 26 15 18 20 22 19
40 38 37 35 33 29 26 24 22 20 20 22 28 34 42 51 59 66 72 76 60 54 53 57 58 50 45 35 17 6 13 22 26 25 31 23 27 20 15 18 20 24 26
38 38 38 35 33 30 27 24 23 21 20 22 27 33 40 48 57 65 70 71 59 44 43 46 51 49 40 32 23 14 13 11 22 20 8 11 18 18 12 16 19 33 49
39 37 35 33 33 31 28 26 25 23 20 20 25 30 36 44 55 62 67 68 64 47 39 33 36 44 38 31 21 19 23 22 26 23 16 6 2 6 16 22 40 58 65
35 32 33 34 35 31 29 28 26 25 23 19 20 25 31 39 49 58 63 64 63 58 39 36 34 33 30 23 19 20 20 19 23 25 13 12 6 12 25 30 60 55 80
31 35 37 36 34 33 33 32 29 26 24 22 18 21 24 33 44 52 57 63 61 59 51 45 37 33 27 21 15 20 16 17 16 18 14 16 25 31 34 47 55 68 64
38 41 40 38 37 37 37 35 31 27 26 25 21 16 19 25 35 44 49 55 58 54 49 43 42 32 18 17 13 16 15 12 9 11 15 24 27 30 37 48 55 51 62
45 45 45 43 42 41 40 39 37 31 27 29 25 18 14 17 25 35 41 46 50 52 48 39 34 30 26 16 14 7 2 2 3 10 16 23 23 31 34 36 35 43 72
49 51 52 50 48 47 45 45 42 36 31 29 29 22 17 13 16 25 34 37 42 44 44 41 40 35 25 25 14 7 4 3 9 15 21 27 29 28 30 36 42 54 59
50 55 58 56 56 56 53 49 45 39 35 31 31 26 19 16 14 19 27 32 36 38 38 35 35 36 34 31 28 21 16 14 15 19 23 28 29 30 37 43 49 58 63
55 55 54 58 61 61 58 55 50 45 42 35 35 31 24 18 13 12 17 23 27 29 28 32 36 35 34 34 31 30 26 19 22 23 26 27 28 29 34 40 44 55 58
53 49 46 50 60 62 62 60 58 51 48 44 41 37 30 23 18 11 10 13 18 22 22 26 28 31 30 28 27 27 28 27 22 21 23 26 28 30 31 35 43 48 49
47 45 45 48 54 55 57 59 58 57 57 51 45 43 37 30 25 18 13 11 11 12 16 19 21 24 26 27 27 25 23 23 20 21 22 23 26 32 39 46 49 48 47
41 40 41 42 48 51 53 54 56 60 60 54 48 49 47 39 33 28 21 16 11 9 5 10 16 17 18 19 22 25 26 23 20 21 24 29 34 35 42 46 48 46 46
35 36 38 42 46 51 56 55 56 60 63 61 59 55 48 49 44 37 30 25 20 15 9 2 9 12 14 15 17 19 20 24 26 24 23 23 26 32 40 44 45 47 46
36 39 42 44 48 54 58 60 60 63 65 64 63 59 55 52 45 42 37 33 28 23 17 10 5 9 11 12 14 17 18 21 24 26 30 31 31 33 36 39 43 42 42
41 46 47 47 47 53 58 62 63 64 64 62 62 61 58 56 51 50 47 42 36 30 25 20 13 9 10 13 13 15 18 18 20 22 25 30 33 36 39 42 42 40 38
43 46 50 50 51 54 60 61 60 62 63 60 64 63 62 62 52 54 55 49 43 37 32 28 23 17 12 10 14 17 16 19 21 23 23 26 29 32 35 36 36 36 34
44 44 52 53 53 56 58 62 62 60 58 59 65 66 63 63 54 53 57 54 50 45 39 34 30 26 22 18 15 15 19 21 23 24 22 24 30 32 32 31 30 30 31
47 48 49 51 55 57 57 60 63 61 58 59 61 63 67 62 60 58 58 59 56 51 44 39 37 33 29 24 21 18 16 15 18 21 24 25 24 25 26 27 27 28 27
54 53 51 55 54 53 59 61 64 63 61 60 61 66 65 63 64 64 59 62 61 56 49 45 41 38 34 28 24 20 18 17 16 17 21 23 24 26 28 29 30 30 30
Wind_Direction_500mb
246 251 259 272 277 277 286 294 298 306 312 316 324 338 342 342 341 337 334 330 328 321 321 318 310 306 294 287 286 277 272 274 271 277 282 277 272 276 244 245 238 239 243
250 253 260 267 267 274 283 289 295 304 309 315 329 340 343 343 342 337 334 335 335 330 323 317 311 309 302 295 287 278 277 278 268 273 285 270 276 263 262 246 259 260 253
250 252 257 260 261 271 279 286 292 301 304 319 332 341 345 345 342 338 337 339 339 327 324 325 328 325 309 298 289 284 280 279 272 262 280 266 267 269 267 238 246 251 252
249 249 251 248 257 265 274 278 288 293 298 318 332 343 346 346 344 342 341 343 334 331 331 337 336 329 317 298 292 283 283 275 269 270 273 272 279 248 250 251 249 260 265
245 244 242 244 253 260 268 272 281 284 295 314 333 344 349 347 348 347 346 342 337 336 342 345 346 340 340 312 295 279 298 279 274 288 280 260 263 264 263 309 290 265 263
240 238 235 243 250 259 264 268 275 277 294 314 334 344 349 351 353 350 349 343 341 346 346 353 358 353 356 352 338 285 285 284 300 283 285 260 233 282 286 291 288 221 200
232 229 234 241 247 255 259 262 268 271 289 312 332 341 352 353 354 353 353 347 346 352 354 357 3 9 16 8 353 265 261 270 280 301 302 224 242 270 283 282 233 204 146
227 229 233 238 245 252 254 257 261 261 283 306 327 340 352 353 356 357 356 351 356 353 359 8 10 7 21 11 32 5 325 331 328 357 330 270 233 254 266 267 233 162 134
226 228 234 239 244 252 255 252 254 257 272 298 319 335 350 354 359 359 359 356 3 360 2 6 17 21 21 28 29 23 1 356 338 336 331 358 349 275 276 264 170 159 123
230 231 234 237 241 248 255 253 254 258 265 284 308 326 345 354 359 1 359 359 5 4 8 12 18 15 20 24 25 12 357 348 343 343 43 96 86 151 168 175 170 171 145
231 232 233 238 243 246 249 251 252 255 261 273 290 313 338 353 1 3 1 2 6 5 8 11 8 13 16 12 24 25 19 357 9 26 75 114 136 150 164 167 160 150 154
232 237 238 242 244 246 248 251 250 253 258 259 268 291 324 352 3 4 5 5 8 8 7 15 14 1 13 15 7 54 36 28 42 76 117 130 144 150 152 159 161 162 152
238 244 245 245 247 246 248 251 252 252 253 255 261 273 299 340 2 8 9 9 14 13 13 19 28 21 41 58 51 34 30 93 95 128 126 124 126 133 150 160 166 160 149
244 246 249 247 249 250 252 250 251 253 253 250 258 269 286 312 355 7 11 14 18 18 19 24 34 31 39 64 72 98 138 93 119 127 126 128 135 139 140 140 149 153 145
252 247 246 249 248 249 250 252 253 254 252 251 253 262 271 287 329 359 11 10 18 23 22 29 44 52 54 60 70 73 86 100 119 124 129 131 134 139 140 147 151 158 141
252 250 247 249 250 250 251 251 250 248 248 248 247 252 261 272 294 337 358 5 12 20 24 30 41 48 54 64 69 78 77 87 112 127 135 139 143 148 147 152 155 155 145
251 253 251 251 252 250 251 251 249 246 244 243 242 242 247 255 267 283 319 346 0 14 25 40 44 51 57 62 75 89 94 99 102 117 125 136 144 147 151 153 150 148 137
253 251 252 255 257 255 254 254 252 248 245 243 240 239 240 243 249 255 266 295 327 358 17 41 52 58 63 69 75 81 94 108 122 129 135 142 151 153 151 149 150 151 143
252 249 251 255 257 258 255 253 252 247 245 243 238 233 234 236 238 243 245 254 272 295 359 42 55 68 72 82 84 82 79 85 106 128 139 144 147 152 152 152 153 150 145
247 250 255 259 260 258 254 252 253 249 244 240 239 238 234 231 234 236 240 241 243 253 264 114 82 78 84 87 87 86 89 95 98 106 121 134 141 150 154 154 152 150 145
253 256 262 261 258 258 259 258 255 252 247 244 240 238 238 236 239 239 236 237 236 235 235 232 164 113 102 104 105 103 104 107 109 113 117 123 131 141 146 148 149 147 145
257 260 258 257 260 261 261 259 255 253 251 246 240 236 238 236 234 237 233 231 232 232 228 223 214 174 140 126 124 121 121 120 121 124 128 132 136 143 147 151 152 151 152
259 263 262 260 259 261 260 257 254 250 248 245 239 235 235 238 233 239 233 229 228 229 226 221 214 205 181 159 147 141 135 132 134 137 142 143 144 149 152 156 158 158 158
253 258 259 260 262 262 258 256 252 248 246 242 239 237 230 237 231 237 234 226 224 224 224 218 213 209 198 185 174 165 157 152 150 148 147 152 154 158 161 166 167 169 170
256 253 257 259 259 258 259 254 251 250 247 242 240 236 228 229 227 228 234 224 222 221 220 217 211 209 205 198 191 182 174 167 163 159 157 160 165 167 171 175 180 180 184
260 255 256 258 260 259 255 255 251 251 247 242 238 232 234 223 223 225 230 222 218 216 214 212 209 208 207 201 198 197 192 186 185 179 175 174 176 179 182 185 187 189 192
Wind_Speed_850mb
57 53 49 47 43 38 35 32 30 29 29 28 29 35 47 58 66 73 80 90 88 86 85 91 92 88 89 84 83 85 80 76 80 73 74 74 79 40 61 54 40 48 49
53 52 50 47 41 35 32 30 28 27 27 24 29 38 49 59 67 74 82 88 90 89 90 89 83 76 75 77 75 69 75 69 73 64 74 69 72 75 51 64 69 71 59
51 52 49 43 37 33 30 27 26 26 23 24 31 41 51 60 68 74 81 90 89 85 81 72 78 82 85 75 59 61 56 60 61 64 68 68 71 68 40 44 40 46 64
51 49 45 38 34 32 28 26 24 24 19 22 30 40 49 59 66 74 83 91 84 76 67 67 74 79 72 67 46 45 45 45 47 52 57 60 50 46 27 30 39 41 43
49 45 40 36 33 30 26 24 23 21 19 21 29 37 46 55 65 76 82 88 78 70 66 62 65 62 43 26 32 34 32 32 37 48 51 41 36 35 17 13 19 26 25
43 40 37 35 33 29 26 23 23 20 19 22 29 37 44 53 63 69 78 84 69 63 63 62 59 54 44 30 16 17 22 25 28 38 27 34 27 26 15 18 20 22 19
40 38 37 35 33 29 26 24 22 20 20 22 28 34 42 51 59 66 72 76 60 54 53 57 58 50 45 35 17 6 13 22 26 25 31 23 27 20 15 18 20 24 26
38 38 38 35 33 30 27 24 23 21 20 22 27 33 40 48 57 65 70 71 59 44 43 46 51 49 40 32 23 14 13 11 22 20 8 11 18 18 12 16 19 33 49
39 37 35 33 33 31 28 26 25 23 20 20 25 30 36 44 55 62 67 68 64 47 39 33 36 44 38 31 21 19 23 22 26 23 16 6 2 6 16 22 40 58 65
35 32 33 34 35 31 29 28 26 25 23 19 20 25 31 39 49 58 63 64 63 58 39 36 34 33 30 23 19 20 20 19 23 25 13 12 6 12 25 30 60 55 80
31 35 37 36 34 33 33 32 29 26 24 22 18 21 24 33 44 52 57 63 61 59 51 45 37 33 27 21 15 20 16 17 16 18 14 16 25 31 34 47 55 68 64
38 41 40 38 37 37 37 35 31 27 26 25 21 16 19 25 35 44 49 55 58 54 49 43 42 32 18 17 13 16 15 12 9 11 15 24 27 30 37 48 55 51 62
45 45 45 43 42 41 40 39 37 31 27 29 25 18 14 17 25 35 41 46 50 52 48 39 34 30 26 16 14 7 2 2 3 10 16 23 23 31 34 36 35 43 72
49 51 52 50 48 47 45 45 42 36 31 29 29 22 17 13 16 25 34 37 42 44 44 41 40 35 25 25 14 7 4 3 9 15 21 27 29 28 30 36 42 54 59
50 55 58 56 56 56 53 49 45 39 35 31 31 26 19 16 14 19 27 32 36 38 38 35 35 36 34 31 28 21 16 14 15 19 23 28 29 30 37 43 49 58 63
55 55 54 58 61 61 58 55 50 45 42 35 35 31 24 18 13 12 17 23 27 29 28 32 36 35 34 34 31 30 26 19 22 23 26 27 28 29 34 40 44 55 58
53 49 46 50 60 62 62 60 58 51 48 44 41 37 30 23 18 11 10 13 18 22 22 26 28 31 30 28 27 27 28 27 22 21 23 26 28 30 31 35 43 48 49
47 45 45 48 54 55 57 59 58 57 57 51 45 43 37 30 25 18 13 11 11 12 16 19 21 24 26 27 27 25 23 23 20 21 22 23 26 32 39 46 49 48 47
41 40 41 42 48 51 53 54 56 60 60 54 48 49 47 39 33 28 21 16 11 9 5 10 16 17 18 19 22 25 26 23 20 21 24 29 34 35 42 46 48 46 46
35 36 38 42 46 51 56 55 56 60 63 61 59 55 48 49 44 37 30 25 20 15 9 2 9 12 14 15 17 19 20 24 26 24 23 23 26 32 40 44 45 47 46
36 39 42 44 48 54 58 60 60 63 65 64 63 59 55 52 45 42 37 33 28 23 17 10 5 9 11 12 14 17 18 21 24 26 30 31 31 33 36 39 43 42 42
41 46 47 47 47 53 58 62 63 64 64 62 62 61 58 56 51 50 47 42 36 30 25 20 13 9 10 13 13 15 18 18 20 22 25 30 33 36 39 42 42 40 38
43 46 50 50 51 54 60 61 60 62 63 60 64 63 62 62 52 54 55 49 43 37 32 28 23 17 12 10 14 17 16 19 21 23 23 26 29 32 35 36 36 36 34
44 44 52 53 53 56 58 62 62 60 58 59 65 66 63 63 54 53 57 54 50 45 39 34 30 26 22 18 15 15 19 21 23 24 22 24 30 32 32 31 30 30 31
47 48 49 51 55 57 57 60 63 61 58 59 61 63 67 62 60 58 58 59 56 51 44 39 37 33 29 24 21 18 16 15 18 21 24 25 24 25 26 27 27 28 27
54 53 51 55 54 53 59 61 64 63 61 60 61 66 65 63 64 64 59 62 61 56 49 45 41 38 34 28 24 20 18 17 16 17 21 23 24 26 28 29 30 30 30
Wind_Direction_850mb
246 251 259 272 277 277 286 294 298 306 312 316 324 338 342 342 341 337 334 330 328 321 321 318 310 306 294 287 286 277 272 274 271 277 282 277 272 276 244 245 238 239 243
250 253 260 267 267 274 283 289 295 304 309 315 329 340 343 343 342 337 334 335 335 330 323 317 311 309 302 295 287 278 277 278 268 273 285 270 276 263 262 246 259 260 253
250 252 257 260 261 271 279 286 292 301 304 319 332 341 345 345 342 338 337 339 339 327 324 325 328 325 309 298 289 284 280 279 272 262 280 266 267 269 267 238 246 251 252
249 249 251 248 257 265 274 278 288 293 298 318 332 343 346 346 344 342 341 343 334 331 331 337 336 329 317 298 292 283 283 275 269 270 273 272 279 248 250 251 249 260 265
245 244 242 244 253 260 268 272 281 284 295 314 333 344 349 347 348 347 346 342 337 336 342 345 346 340 340 312 295 279 298 279 274 288 280 260 263 264 263 309 290 265 263
240 238 235 243 250 259 264 268 275 277 294 314 334 344 349 351 353 350 349 343 341 346 346 353 358 353 356 352 338 285 285 284 300 283 285 260 233 282 286 291 288 221 200
232 229 234 241 247 255 259 262 268 271 289 312 332 341 352 353 354 353 353 347 346 352 354 357 3 9 16 8 353 265 261 270 280 301 302 224 242 270 283 282 233 204 146
227 229 233 238 245 252 254 257 261 261 283 306 327 340 352 353 356 357 356 351 356 353 359 8 10 7 21 11 32 5 325 331 328 357 330 270 233 254 266 267 233 162 134
226 228 234 239 244 252 255 252 254 257 272 298 319 335 350 354 359 359 359 356 3 360 2 6 17 21 21 28 29 23 1 356 338 336 331 358 349 275 276 264 170 159 123
230 231 234 237 241 248 255 253 254 258 265 284 308 326 345 354 359 1 359 359 5 4 8 12 18 15 20 24 25 12 357 348 343 343 43 96 86 151 168 175 170 171 145
231 232 233 238 243 246 249 251 252 255 261 273 290 313 338 353 1 3 1 2 6 5 8 11 8 13 16 12 24 25 19 357 9 26 75 114 136 150 164 167 160 150 154
232 237 238 242 244 246 248 251 250 253 258 259 268 291 324 352 3 4 5 5 8 8 7 15 14 1 13 15 7 54 36 28 42 76 117 130 144 150 152 159 161 162 152
238 244 245 245 247 246 248 251 252 252 253 255 261 273 299 340 2 8 9 9 14 13 13 19 28 21 41 58 51 34 30 93 95 128 126 124 126 133 150 160 166 160 149
244 246 249 247 249 250 252 250 251 253 253 250 258 269 286 312 355 7 11 14 18 18 19 24 34 31 39 64 72 98 138 93 119 127 126 128 135 139 140 140 149 153 145
252 247 246 249 248 249 250 252 253 254 252 251 253 262 271 287 329 359 11 10 18 23 22 29 44 52 54 60 70 73 86 100 119 124 129 131 134 139 140 147 151 158 141
252 250 247 249 250 250 251 251 250 248 248 248 247 252 261 272 294 337 358 5 12 20 24 30 41 48 54 64 69 78 77 87 112 127 135 139 143 148 147 152 155 155 145
251 253 251 251 252 250 251 251 249 246 244 243 242 242 247 255 267 283 319 346 0 14 25 40 44 51 57 62 75 89 94 99 102 117 125 136 144 147 151 153 150 148 137
253 251 252 255 257 255 254 254 252 248 245 243 240 239 240 243 249 255 266 295 327 358 17 41 52 58 63 69 75 81 94 108 122 129 135 142 151 153 151 149 150 151 143
252 249 251 255 257 258 255 253 252 247 245 243 238 233 234 236 238 243 245 254 272 295 359 42 55 68 72 82 84 82 79 85 106 128 139 144 147 152 152 152 153 150 145
247 250 255 259 260 258 254 252 253 249 244 240 239 238 234 231 234 236 240 241 243 253 264 114 82 78 84 87 87 86 89 95 98 106 121 134 141 150 154 154 152 150 145
253 256 262 261 258 258 259 258 255 252 247 244 240 238 238 236 239 239 236 237 236 235 235 232 164 113 102 104 105 103 104 107 109 113 117 123 131 141 146 148 149 147 145
257 260 258 257 260 261 261 259 255 253 251 246 240 236 238 236 234 237 233 231 232 232 228 223 214 174 140 126 124 121 121 120 121 124 128 132 136 143 147 151 152 151 152
259 263 262 260 259 261 260 257 254 250 248 245 239 235 235 238 233 239 233 229 228 229 226 221 214 205 181 159 147 141 135 132 134 137 142 143 144 149 152 156 158 158 158
253 258 259 260 262 262 258 256 252 248 246 242 239 237 230 237 231 237 234 226 224 224 224 218 213 209 198 185 174 165 157 152 150 148 147 152 154 158 161 166 167 169 170
256 253 257 259 259 258 259 254 251 250 247 242 240 236 228 229 227 228 234 224 222 221 220 217 211 209 205 198 191 182 174 167 163 159 157 160 165 167 171 175 180 180 184
260 255 256 258 260 259 255 255 251 251 247 242 238 232 234 223 223 225 230 222 218 216 214 212 209 208 207 201 198 197 192 186 185 179 175 174 176 179 182 185 187 189 192